EW4858 Weather Reports


Display with metric or nautical units.
time (UTC)temp
F
wind
direction
speed
MPH
gust
MPH
rain 1hr
in
rain 24hr
in
rain mn
in
humidity
%
barometer
mb
20260508064527 61 255 1.0 5.0 0.00 0.00 0.00 87 1012.5
20260508063028 61 5 0.0 4.0 0.00 0.00 0.00 87 1012.6
20260508061527 61 5 0.0 3.0 0.00 0.00 0.00 87 1012.6
20260508060025 61 5 0.0 1.0 0.00 0.00 0.00 87 1012.6
20260508054525 61 5 0.0 2.0 0.00 0.00 0.00 87 1012.5
20260508053027 61 5 0.0 2.0 0.00 0.00 0.00 87 1012.6
20260508051527 61 5 0.0 4.0 0.00 0.00 0.00 87 1012.6
20260508050024 61 360 1.0 4.0 0.00 0.00 0.00 87 1012.6
20260508044523 61 355 1.0 4.0 0.00 0.00 0.00 86 1012.4
20260508043021 61 355 0.0 3.0 0.00 0.00 0.00 86 1012.3
20260508041521 61 355 2.0 4.0 0.00 0.00 0.00 85 1012.1
20260508040019 62 344 0.0 4.0 0.00 0.00 0.00 84 1011.8
20260508034522 62 355 3.0 5.0 0.00 0.00 0.00 82 1011.7
20260508033019 63 355 3.0 5.0 0.00 0.00 0.00 80 1011.6
20260508031518 64 26 2.0 6.0 0.00 0.00 0.00 79 1011.3
20260508030018 65 355 2.0 6.0 0.00 0.00 0.00 77 1011.0
20260508024518 66 341 2.0 7.0 0.00 0.00 0.00 75 1010.8
20260508023016 67 5 3.0 7.0 0.00 0.00 0.00 73 1010.5
20260508021524 68 21 3.0 7.0 0.00 0.00 0.00 71 1010.3
20260508020016 69 360 3.0 5.0 0.00 0.00 0.00 70 1010.2
20260508014516 70 18 3.0 7.0 0.00 0.00 0.00 69 1010.2
20260508013024 70 5 4.0 7.0 0.00 0.00 0.00 68 1010.2
20260508011516 71 333 4.0 8.0 0.00 0.00 0.00 67 1010.1
20260508010016 71 26 6.0 9.0 0.00 0.00 0.00 67 1010.2
20260508004527 71 355 6.0 13.0 0.00 0.00 0.00 66 1010.1
20260508003013 73 34 6.0 11.0 0.00 0.00 0.00 63 1010.1
20260508001517 74 334 4.0 10.0 0.00 0.00 0.00 62 1009.9
20260508000012 74 13 3.0 10.0 0.00 0.00 0.00 62 1009.9
20260507234512 74 329 4.0 10.0 0.00 0.00 0.00 61 1009.9
20260507233020 75 65 3.0 11.0 0.00 0.00 0.00 60 1009.9
20260507231511 75 38 3.0 10.0 0.00 0.00 0.00 60 1009.9
20260507230010 74 350 3.0 10.0 0.00 0.00 0.00 61 1009.9
20260507224509 75 53 5.0 10.0 0.00 0.00 0.00 60 1010.0
20260507223010 75 40 5.0 10.0 0.00 0.00 0.00 59 1010.1
20260507221515 75 5 5.0 12.0 0.00 0.00 0.00 59 1010.1
20260507220005 76 55 4.0 12.0 0.00 0.00 0.00 59 1010.2
20260507214503 75 40 6.0 12.0 0.00 0.00 0.00 59 1010.4
20260507213002 75 51 3.0 12.0 0.00 0.00 0.00 60 1010.6
20260507211501 75 11 5.0 8.0 0.00 0.00 0.00 59 1010.6
20260507210100 75 52 6.0 12.0 0.00 0.00 0.00 60 1010.7
20260507204608 75 46 7.0 12.0 0.00 0.00 0.00 60 1010.8
20260507203102 75 57 7.0 16.0 0.00 0.00 0.00 60 1010.9
20260507201600 76 5 6.0 14.0 0.00 0.00 0.00 59 1010.8
20260507200058 76 31 8.0 15.0 0.00 0.00 0.00 59 1010.8
20260507194633 75 78 4.0 12.0 0.00 0.00 0.00 58 1010.9
20260507194504 75 48 5.0 12.0 0.00 0.00 0.00 58 1010.9
20260507193055 75 55 2.0 7.0 0.00 0.00 0.00 59 1011.0
20260507191552 74 31 1.0 10.0 0.00 0.00 0.00 60 1011.2
20260507190048 73 288 2.0 9.0 0.00 0.00 0.00 61 1011.4
20260507184545 72 332 1.0 5.0 0.00 0.00 0.00 62 1011.6
20260507183041 71 47 2.0 7.0 0.00 0.00 0.00 63 1011.7
20260507181538 70 114 2.0 8.0 0.00 0.00 0.00 64 1011.8
20260507180037 69 44 3.0 7.0 0.00 0.00 0.00 65 1012.0
20260507174541 68 41 1.0 6.0 0.00 0.00 0.00 67 1012.2
20260507173036 68 30 3.0 8.0 0.00 0.00 0.00 69 1012.2
20260507171526 66 104 0.0 5.0 0.00 0.00 0.00 71 1012.3
20260507170022 65 86 3.0 7.0 0.00 0.00 0.00 74 1012.5
20260507164519 65 107 2.0 6.0 0.00 0.00 0.00 76 1012.6
20260507163015 63 121 0.0 7.0 0.00 0.00 0.00 79 1012.8
20260507161512 62 56 1.0 5.0 0.00 0.00 0.00 80 1012.8
20260507160013 61 69 2.0 6.0 0.00 0.00 0.00 81 1012.9
20260507154506 60 61 1.0 4.0 0.00 0.00 0.00 82 1013.0
20260507153006 60 83 1.0 4.0 0.00 0.00 0.00 83 1012.8
20260507151503 59 122 1.0 5.0 0.00 0.00 0.00 84 1012.8
20260507150100 58 134 1.0 4.0 0.00 0.00 0.00 85 1012.7
20260507144603 58 177 0.0 0.0 0.00 0.00 0.00 85 1012.7
20260507143111 57 178 0.0 0.0 0.00 0.00 0.00 87 1012.7
20260507141559 56 178 0.0 0.0 0.00 0.00 0.00 90 1012.6
20260507140100 55 178 0.0 0.0 0.00 0.00 0.00 90 1012.5
20260507134559 53 178 0.0 0.0 0.00 0.00 0.00 91 1012.5
20260507133106 52 178 0.0 4.0 0.00 0.00 0.00 91 1012.4
20260507131612 52 177 0.0 3.0 0.00 0.00 0.00 91 1012.5
20260507130056 52 177 0.0 0.0 0.00 0.00 0.00 90 1012.4
20260507124555 52 177 0.0 0.0 0.00 0.00 0.00 90 1012.2
20260507123055 52 177 0.0 0.0 0.00 0.00 0.00 90 1012.1
20260507121553 52 177 0.0 0.0 0.00 0.00 0.00 90 1012.1
20260507120052 53 177 0.0 0.0 0.00 0.00 0.00 90 1012.1
20260507114551 53 177 0.0 0.0 0.00 0.00 0.00 89 1012.1
20260507113050 53 177 0.0 0.0 0.00 0.00 0.00 89 1012.1
20260507111549 53 177 0.0 0.0 0.00 0.00 0.00 88 1012.1
20260507110046 54 177 0.0 0.0 0.00 0.00 0.00 88 1012.1
20260507104545 54 177 0.0 0.0 0.00 0.00 0.00 88 1012.2
20260507103044 54 177 0.0 0.0 0.00 0.00 0.00 88 1012.3
20260507101544 55 177 0.0 0.0 0.00 0.00 0.00 88 1012.4
20260507100045 55 177 0.0 0.0 0.00 0.00 0.00 88 1012.4
20260507094538 55 168 0.0 0.0 0.00 0.00 0.00 87 1012.5
20260507093043 55 166 0.0 0.0 0.00 0.00 0.00 87 1012.6
20260507091535 55 166 0.0 0.0 0.00 0.00 0.00 87 1012.7
20260507090033 55 166 0.0 0.0 0.00 0.00 0.00 87 1012.8
20260507084530 56 166 0.0 0.0 0.00 0.00 0.00 86 1013.1
20260507083029 56 166 0.0 0.0 0.00 0.00 0.00 86 1013.3
20260507081527 56 166 0.0 0.0 0.00 0.00 0.00 86 1013.3
20260507080034 57 166 0.0 0.0 0.00 0.00 0.00 85 1013.4
20260507074525 57 165 0.0 0.0 0.00 0.00 0.00 85 1013.3
20260507073021 58 163 0.0 0.0 0.00 0.00 0.00 85 1013.4
20260507071548 59 163 1.0 4.0 0.00 0.00 0.00 84 1013.5
20260507070015 59 113 0.0 0.0 0.00 0.00 0.00 84 1013.5